Regional Weather Roundup
Issued by NWS Charleston, WV

Home | Current Version | Previous Version | Graphics & Text | Print | Product List | Glossary On
Versions: 1 2 3 4 5 6 7 8 9 10 11 12 13 14 15 16 17 18 19 20 21 22 23 24 25 26 27
000
ASUS41 KRLX 100710
RWRRLX
West Virginia Regional Weather Roundup
National Weather Service Charleston WV
200 AM EST SUN DEC 10 2017

Note: "fair" indicates few or no clouds below 12,000 feet with no
significant weather and/or obstructions to visibility.

WVZ003-100800-
Northern Panhandle of West Virginia

CITY           SKY/WX    TMP DP  RH WIND       PRES   REMARKS
WHEELING       CLOUDY    27  22  81 W13G20    29.90R
$$

WVZ009-100800-
Northwest West Virginia

CITY           SKY/WX    TMP DP  RH WIND       PRES   REMARKS
PARKERSBURG    CLOUDY    29  24  82 SW8       30.00R
$$

WVZ006-100800-
Western West Virginia

CITY           SKY/WX    TMP DP  RH WIND       PRES   REMARKS
HUNTINGTON     CLOUDY    29  21  72 W10G21    30.05R
$$

WVZ015-100800-
West Central West Virginia

CITY           SKY/WX    TMP DP  RH WIND       PRES   REMARKS
CHARLESTON     LGT SNOW  29  24  82 W12G18    30.01R
$$

WVZ022-031-100800-
North Central West Virginia

CITY           SKY/WX    TMP DP  RH WIND       PRES   REMARKS
CLARKSBURG     CLOUDY    29  22  75 W12       29.93R
MORGANTOWN     CLOUDY    29  21  72 VRB6      29.91R
$$

WVZ025-035-042-045-100800-
Southern West Virginia

CITY           SKY/WX    TMP DP  RH WIND       PRES   REMARKS
BECKLEY        LGT SNOW  23  20  88 W17G23    29.92R FOG     WCI   9
LOGAN          LGT SNOW  27  23  86 VRB7G16   30.01R
BLUEFIELD      LGT SNOW  21  18  88 W18G28    29.91S FOG     WCI   6
LEWISBURG      LGT SNOW  25  20  82 W6        29.91R
$$

WVZ047-100800-
Northern Mountains of West Virginia

CITY           SKY/WX    TMP DP  RH WIND       PRES   REMARKS
ELKINS         CLOUDY    26  18  71 W9G18     29.89R
$$

WVZ052-100800-
Eastern Panhandle of West Virginia

CITY           SKY/WX    TMP DP  RH WIND       PRES   REMARKS
MARTINSBURG    CLOUDY    32  19  58 W9        29.86R
PETERSBURG     CLOUDY    32  19  60 CALM      29.89R
$$




USA.gov is the U.S. government's official web portal to all federal, state and local government web resources and services.